SCP
0 0 0 0 0 0 0 0 0 0 0 0 0 0 0 0 0 0 0 0 0 0 0 0 0 0 0 0 0 0 0 0 0 0 0 0 0 0 0 0 0 0 0
0 0 0 0 0 0 0 0 0 0 0 0 0 0 0 0 0 0 0 0 0 0 0 0 0 0 0 0 0 0 0 0 0 0 0 0 0 0 0 0 0 0 0
0 0 0 0 0 0 0 0 0 0 0 0 0 0 0 0 0 0 0 0 0 0 0 0 0 0 0 0 0 0 0 0 0 0 0 0 0 0 0 0 0 0 0
0 0 0 0 0 0 0 0 0 0 0 0 0 0 0 0 0 0 0 0 0 0 0 0 0 0 0 0 0 0 0 0 0 0 0 0 0 0 0 0 0 0 0
0 0 0 0 0 0 0 0 0 0 0 0 0 0 0 0 0 0 0 0 0 -0 -0 -0 0 0 0 0 0 0 0 0 0 0 0 0 0 0 0 0 0 0 0
0 0 0 0 0 0 0 0 0 0 0 0 0 0 0 0 0 0 0 0 0 -0 -0 -0 0 0 0 0 0 0 0 0 0 0 0 0 0 0 0 0 0 0 0
0 0 0 0 0 0 0 0 0 0 0 0 0 0 0 0 0 0 0 0 0 0 0 0 0 0 0 0 0 0 0 0 0 0 0 0 0 0 0 0 0 0 0
0 0 0 0 0 0 0 0 0 0 0 0 0 0 0 0 0 0 0 0 0 0 0 0 0 0 0 0 0 0 0 0 0 0 0 0 0 0 0 0 0 0 0
0 0 0 0 0 0 0 0 0 0 0 0 0 0 0 0 0 0 0 0 0 0 0 0 0 0 0 0 0 0 0 0 0 0 0 0 0 0 0 0 0 0 0
0 0 0 0 0 0 0 0 0 0 0 0 0 0 0 0 0 0 0 0 0 0 0 0 0 0 0 0 0 0 0 0 0 0 0 0 0 0 0 0 0 0 0
0 0 0 0 0 0 0 0 0 0 0 0 0 0 0 0 0 0 0 0 0 0 0 0 0 0 0 0 0 0 0 0 0 0 0 0 0 0 0 0 0 0 0
0 0 0 0 0 0 0 0 0 0 0 0 0 0 0 0 0 0 0 0 0 0 0 0 0 0 0 0 0 0 0 0 0 0 0 0 0 0 0 0 0 0 0
0 0 0 0 0 0 0 0 0 0 0 0 0 0 0 0 0 0 0 0 0 0 0 0 0 0 0 0 0 0 0 0 0 0 0 0 0 0 0 0 0 0 0
0 0 0 0 0 0 0 0 0 0 0 0 0 0 0 0 0 0 0 0 0 0 0 0 0 0 0 0 0 0 0 0 0 0 0 0 0 0 0 0 0 0 0
0 0 0 0 0 0 0 0 0 0 0 0 0 0 0 0 0 0 0 0 0 0 0 0 0 0 0 0 0 0 0 0 0 0 0 0 0 0 0 0 0 0 0
0 0 0 0 0 0 0 0 0 0 0 0 0 0 0 0 0 0 0 0 0 0 0 0 0 0 0 0 0 0 0 0 0 0 0 0 0 0 0 0 0 0 0
0 0 0 0 0 0 0 0 0 0 0 0 0 0 0 0 0 0 0 0 0 0 0 0 0 0 0 0 0 0 0 0 0 0 0 0 0 0 0 0 0 0 0
0 0 0 0 0 0 0 0 0 0 0 0 0 0 0 0 0 0 0 0 0 0 0 0 0 0 0 0 0 0 0 0 0 0 0 0 0 0 0 0 0 0 0
0 0 0 0 0 0 0 0 0 0 0 0 0 0 0 0 0 0 0 0 0 0 0 0 0 0 0 0 0 0 0 0 0 0 0 0 0 0 0 0 0 0 0
0 0 0 0 0 0 0 0 0 0 0 0 0 0 0 0 0 0 0 0 0 0 0 0 0 0 0 0 0 0 0 0 0 0 0 0 0 0 0 0 0 0 0
0 0 0 0 0 0 0 0 0 0 0 0 0 0 0 0 0 0 0 0 0 0 0 0 0 0 0 0 0 0 0 0 0 0 0 0 0 0 0 0 0 0 0
0 0 0 0 0 0 0 0 0 0 0 0 0 0 0 0 0 0 0 0 0 0 0 0 0 0 0 0 0 0 0 0 0 0 0 0 0 0 0 0 0 0 0
0 0 0 0 0 0 0 0 0 0 0 0 0 0 0 0 0 0 0 0 0 0 0 0 0 0 0 0 0 0 0 0 0 0 0 0 0 0 0 0 0 0 0
0 0 0 0 0 0 0 0 0 0 0 0 0 0 0 0 0 0 0 0 0 0 0 0 0 0 0 0 0 0 0 0 0 0 0 0 0 0 0 0 0 0 0
0 0 0 0 0 0 0 0 0 0 0 0 0 0 0 0 0 0 0 0 0 0 0 0 0 0 0 0 0 0 0 0 0 0 0 0 0 0 0 0 0 0 0
0 0 0 0 0 0 0 0 0 0 0 0 0 0 0 0 0 0 0 0 0 0 0 0 0 0 0 0 0 0 0 0 0 0 0 0 0 0 0 0 0 0 0
Wind_Speed
7 10 11 12 13 13 14 14 14 14 14 13 13 13 13 13 13 13 13 12 12 12 12 11 11 10 10 10 10 10 10 10 9 9 9 10 10 10 10 10 9 9 12
10 11 11 12 13 13 13 13 13 14 14 13 12 12 12 12 12 12 12 12 12 11 11 11 11 10 10 9 9 9 9 9 9 8 8 9 10 9 8 7 5 9 11
11 11 12 11 12 12 12 13 13 13 13 13 12 12 12 12 11 11 11 11 11 11 11 10 10 9 9 8 8 8 8 8 7 6 6 6 10 9 8 8 9 10 10
11 10 11 12 11 12 12 12 12 12 12 12 11 11 11 11 11 11 11 10 10 10 10 9 9 8 8 8 7 7 7 7 6 4 4 5 7 10 8 8 9 9 10
11 10 12 11 11 11 11 11 11 11 11 11 11 10 10 10 10 10 10 10 9 9 9 8 8 8 7 7 6 6 6 5 4 5 4 5 6 9 7 8 8 8 9
10 10 12 10 11 10 10 10 10 11 11 10 10 10 9 9 9 9 9 9 8 8 8 7 7 7 6 6 5 5 5 4 6 3 4 4 6 8 7 7 7 8 8
10 10 12 10 10 10 10 10 10 10 10 10 9 9 8 8 8 8 8 8 7 7 6 6 6 5 5 4 4 4 4 3 4 3 4 4 7 8 6 6 7 7 7
9 10 11 10 9 9 9 9 9 9 9 9 9 8 8 7 7 6 6 6 6 5 5 5 5 4 4 3 3 3 3 5 3 3 3 5 9 6 6 5 6 7 7
8 8 8 10 10 9 8 8 8 8 8 8 8 7 7 7 6 5 5 5 5 5 4 4 3 3 3 3 2 3 3 4 4 2 3 4 8 6 5 5 6 6 6
7 7 7 7 7 8 9 8 7 7 7 6 6 6 6 6 6 5 5 5 4 4 4 3 3 2 2 3 3 3 4 7 4 3 3 6 7 5 5 6 6 6 6
7 6 6 7 6 5 6 8 7 7 6 6 7 6 5 3 4 5 6 5 3 3 3 3 2 3 4 5 5 5 7 4 2 1 2 8 6 5 5 6 6 6 6
9 8 6 5 6 5 4 5 4 4 5 3 3 3 3 2 2 2 6 3 3 3 3 4 4 6 7 4 6 8 4 3 2 2 5 9 6 6 6 6 6 6 6
9 7 7 6 5 4 3 3 2 2 3 3 3 2 2 1 2 2 2 4 3 4 2 4 5 2 1 0 2 2 1 2 1 1 6 9 7 7 7 6 6 7 6
9 8 7 6 5 3 2 2 2 2 2 2 3 2 1 1 1 1 1 1 0 1 1 0 0 0 0 1 2 2 2 3 1 1 5 9 8 8 8 8 7 7 7
8 8 6 5 4 3 2 2 2 2 2 2 2 2 1 1 1 1 1 1 1 1 0 1 1 1 1 2 2 2 3 2 3 3 4 9 9 8 8 8 8 8 8
8 7 7 6 5 4 3 2 2 2 2 2 2 2 1 1 1 0 1 0 1 1 1 1 1 1 1 1 2 2 3 3 2 3 2 6 10 9 9 9 9 9 9
8 8 7 7 6 5 4 4 2 2 3 2 2 2 2 2 1 1 1 1 0 1 1 1 1 1 2 2 2 2 3 2 1 2 3 3 6 11 11 10 9 9 9
9 9 8 7 7 6 5 4 3 3 2 2 2 2 3 2 2 2 1 1 1 2 2 1 2 1 1 2 1 2 2 1 2 3 4 4 3 4 9 11 10 9 10
9 9 8 7 7 6 5 4 3 3 3 2 2 3 3 3 3 3 2 1 2 2 2 2 1 2 1 2 2 2 2 2 2 3 3 4 4 4 3 9 11 10 10
9 9 8 8 7 6 5 4 3 3 3 3 3 2 3 3 3 3 3 2 3 1 1 1 1 2 2 2 3 2 2 2 3 2 3 3 4 5 4 3 6 9 11
10 10 9 9 8 6 5 4 4 4 3 3 3 3 4 4 4 4 3 2 3 1 2 2 2 2 2 2 3 2 3 3 2 3 3 3 3 3 4 4 4 4 6
11 11 10 9 8 7 5 4 3 2 3 2 2 2 4 4 4 4 4 4 2 2 2 2 2 3 2 1 3 3 2 2 3 2 3 3 2 3 4 5 4 4 5
12 12 10 10 9 8 7 5 3 3 4 4 4 3 4 4 4 4 4 4 3 4 2 2 2 3 2 2 2 3 3 2 2 2 2 2 2 2 3 3 5 5 5
12 11 10 9 9 8 8 7 7 5 4 3 3 2 3 4 4 4 4 4 4 4 2 4 2 3 3 3 1 2 3 4 4 2 2 2 2 3 3 3 3 4 5
12 11 10 9 9 8 8 8 7 6 5 3 3 3 4 4 4 4 4 4 4 4 3 3 2 4 3 4 3 2 2 3 5 5 3 2 2 2 3 3 3 2 3
11 10 10 10 9 8 8 8 8 7 6 5 4 4 4 4 4 4 4 4 5 4 4 4 4 5 4 4 4 3 3 3 3 4 4 4 3 2 3 2 3 2 3
Wind_Direction
112 110 109 109 109 108 109 111 111 112 110 109 109 109 108 108 108 108 107 106 105 104 104 106 108 108 106 106 104 105 105 107 107 110 114 114 114 113 117 125 138 120 113
117 115 113 110 109 108 109 110 111 111 109 108 108 108 108 107 106 106 107 108 108 107 107 108 110 110 109 110 108 109 110 111 114 117 127 127 118 118 120 118 96 107 123
121 120 119 109 109 107 107 108 110 110 110 109 109 109 106 105 105 106 105 108 108 108 108 108 109 110 109 107 108 109 110 112 116 130 175 139 120 122 123 118 114 123 127
122 120 113 111 109 108 107 107 108 109 108 109 109 108 107 106 106 106 105 104 106 108 109 110 111 111 108 105 104 109 113 114 122 187 183 114 119 120 129 130 132 132 132
117 115 111 115 111 110 109 108 109 108 109 110 111 110 109 107 107 107 107 106 107 109 109 109 112 111 107 103 103 107 116 124 159 222 114 109 107 119 132 138 140 141 139
124 120 113 116 113 113 112 112 111 108 108 108 109 112 112 110 108 107 107 107 106 106 107 110 114 113 110 108 106 108 117 148 216 149 114 123 114 125 137 143 147 149 149
125 119 119 118 116 115 114 113 111 108 108 109 112 113 112 111 109 108 108 108 107 105 106 110 113 115 114 110 109 114 127 212 242 114 125 128 105 126 140 146 152 155 155
126 123 121 122 117 116 116 116 114 112 109 109 114 114 113 112 111 107 110 109 109 107 107 109 117 121 122 116 120 131 158 251 194 125 140 116 108 130 144 147 151 155 157
127 125 129 136 134 130 121 117 115 112 110 111 114 115 116 117 115 112 111 111 108 110 110 111 116 123 131 137 146 155 180 257 253 146 140 110 120 140 151 155 155 157 163
133 129 134 135 134 140 135 127 123 117 114 116 122 122 126 134 136 138 141 111 108 115 118 117 120 137 164 172 170 173 201 233 217 166 139 113 132 154 164 169 167 166 171
144 142 138 137 137 136 130 131 142 141 138 158 147 148 176 149 127 149 93 100 106 120 130 139 159 180 204 187 181 197 220 232 170 175 122 116 148 171 177 179 179 179 182
150 149 145 147 139 137 130 132 148 151 138 150 113 133 131 97 92 103 119 139 137 146 167 168 197 207 224 184 173 204 219 215 212 188 125 134 164 186 188 187 187 189 193
150 154 157 150 143 146 140 142 137 128 128 138 116 116 102 133 146 140 134 159 167 186 172 156 198 213 214 175 227 212 241 244 213 211 129 149 177 195 197 195 195 197 199
154 161 159 152 152 155 140 141 155 144 144 139 133 171 144 117 93 86 108 49 142 116 59 335 203 106 296 238 240 242 236 259 248 234 135 161 186 203 205 205 205 206 207
165 164 161 158 156 164 171 201 154 164 169 153 149 155 191 161 117 104 85 8 322 18 196 261 341 37 290 246 252 229 244 258 252 248 154 168 190 203 209 211 210 212 211
177 173 170 176 173 179 186 191 174 178 178 185 172 161 206 186 122 313 172 157 321 319 345 309 330 284 283 298 271 264 262 251 212 241 231 170 187 198 208 215 215 217 216
181 182 183 183 181 185 191 193 182 203 186 191 166 169 209 210 166 240 226 211 227 270 267 266 300 284 265 251 266 272 255 260 241 233 243 220 191 192 203 213 218 220 220
182 183 189 190 181 185 195 203 195 207 201 202 197 193 203 209 214 247 250 236 241 254 254 252 268 284 287 283 260 268 260 223 240 232 232 223 227 203 191 202 215 220 223
186 185 188 192 188 190 190 199 209 204 216 218 208 221 202 212 215 243 264 286 254 264 287 286 349 296 288 292 262 240 257 243 242 232 235 232 223 235 217 178 199 215 220
187 188 191 192 192 193 191 196 207 217 214 216 220 219 224 222 217 247 235 242 268 266 279 294 300 282 284 281 288 294 264 247 242 239 241 223 218 223 227 209 198 199 207
189 190 192 195 187 192 194 203 204 206 212 212 219 220 233 238 224 237 265 229 261 262 291 292 283 258 267 295 281 263 238 221 231 218 233 246 221 230 229 216 227 227 195
192 193 192 194 191 196 197 207 214 221 225 226 232 219 237 239 237 224 235 252 242 246 247 276 278 289 282 272 292 292 260 194 209 213 212 218 235 225 227 222 216 221 249
194 195 195 196 196 201 200 200 203 208 225 219 214 214 231 240 244 254 245 257 258 256 243 255 262 268 284 271 279 295 298 318 305 196 219 212 232 246 238 229 225 218 229
195 193 194 193 197 198 199 206 212 220 227 231 236 222 227 232 242 242 242 245 255 260 248 250 235 262 265 271 235 259 292 319 293 281 222 200 210 231 248 253 234 216 224
192 190 188 190 196 196 201 203 214 228 228 226 227 220 235 226 234 245 242 240 243 253 255 269 265 262 258 271 274 260 256 251 260 280 288 282 232 226 231 239 251 247 228
186 187 185 185 192 195 200 204 211 223 230 234 233 234 229 220 223 231 240 240 242 247 241 244 246 240 255 266 272 267 265 271 275 274 277 273 272 249 242 246 246 237 233